DELTA 1 DEB, 48087

Orbit data source: Space-Track

DELTA 1 DEB, 48087 is space debris in SSO originally from a launch on Thu, 12 Jun 1975 UTC launched from the Air Force Western Test Range (AFWTR). Debris objects in space refer to the collection of defunct objects orbiting the Earth. Examples of debris include non-operational satellites, rocket bodies, and fragments generated from explosions, collisions, or faulty payload assembly.

Loading next visibility...
Identifier
48087, 1975-052MX
Orbit
SSO
Country
Flag of USUS
Related business
Manufacturer
Unknown
Mission
Spacecraft
Bus & Motor
Unknown
Mass
Unknown
Launch date (UTC)
1975-06-12 (51 years ago)
Launch vehicle
Unknown
Launch site
Air Force Western Test Range (AFWTR)
Object type
Payload
Rocket body
Debris
Shape & HBR
Unknown shape, 0.1 m
Radar Cross Section
Small (<0.1 m²)

Expand to show TLE details & history
Last TLE update: 3 days ago

TLE from 3 days ago
0 DELTA 1 DEB
1 48087U 75052MX  26124.28873526  .00000379  00000-0  72720-3 0  9992
2 48087  99.6826 319.6891 0054901 248.4455 111.0819 13.43523890609696
Epoch: 2026-05-04T06:55Z
TLE epoch observation values (Epoch: 2026-05-04T06:55:46.726Z)
Latitude
-0°
Longitude
-6.43567°
Altitude
1,113.917 km
Speed
7.288 km/s
True Right ascension
21h 18m 45s
True Declination
0° 00' 00"
Sunlit
Object was in daylight at epoch
Visualization orbit readout
Latitude
Unknown
Longitude
Unknown
Altitude
Unknown
Speed
Unknown
Apparent Right ascension
Unknown
Apparent Declination
Unknown
Sunlit
N/A
Visualization observer readout
Local Sidereal Time
20:06:10
Azimuth
Unknown
Elevation
Unknown
Doppler factor
Unknown
Orbital elements
Apogee altitude
1,134.51 km
Perigee altitude
1,052.47 km
Semi-major axis
7,471.627 km
Eccentricity
0.00549
Inclination
99.6826°
RAAN
319.6891°
Arg. of periapsis
248.4455°
True anomaly
111.66745°
Mean anomaly
111.0819°
Eccentric anomaly
111.37482°
Mean motion
3.36063 °/min
Orbital period
107.12 mins
BSTAR
0.0007272
Loading maneuver chart data...
Computing Atmospheric mass density...
Loading historical data...
Loading historical data...
Loading historical data...
Loading historical data...
Loading historical data...
Loading historical data...
Loading historical data...

Documentation

Showing up to 5 results
|